Location: St. Andrews
(45.0670°N, 67.0330°W)
Time: 01:23:27
(UTC-03:00)

Amateur Radio Satellites - All Passes

Search period start: 08 July 2015 00:53
Search period end: 09 July 2015 00:53
Location: St. Andrews, 45.0670°N, 67.0330°W

Satellite Date Start Highest point End Downlink Frequencies (MHz)
Time Altitude Azimuth
UNISAT 6 08 Jul 00:53:59 00:58:04 37° 290° (WNW) 01:02:11 437.425
QB50P1 08 Jul 00:54:51 00:59:05 81° 285° (WNW) 01:03:17 145.935-145.965
NANOSAT C BR1 08 Jul 01:07:37 01:11:47 60° 286° (WNW) 01:15:54 145.865
DUCHIFAT 1 08 Jul 01:13:16 01:17:22 53° 287° (WNW) 01:21:26 145.980
BUGSAT 1 08 Jul 01:13:25 01:17:30 79° 285° (WNW) 01:21:30 437.445
TISAT 1 08 Jul 01:17:00 01:21:14 72° 257° (WSW) 01:25:28 437.305
POLYITAN 1 08 Jul 01:23:23 01:27:20 40° 289° (WNW) 01:31:16 437.675
ANTELSAT 08 Jul 01:39:51 01:42:25 15° 297° (WNW) 01:44:51 437.575/2403.000
AIST 1 08 Jul 01:41:13 01:42:04 11° 62° (ENE) 01:43:09
BEESAT 08 Jul 01:50:56 01:55:29 46° 70° (ENE) 02:00:05 436.000
TIGRISAT 08 Jul 01:51:06 01:52:58 12° 299° (WNW) 01:54:39 435.000
POPSAT HIP 1 08 Jul 01:52:46 01:56:01 22° 294° (WNW) 01:59:11 437.405
QB50P2 08 Jul 01:53:05 01:56:18 21° 294° (WNW) 01:59:25 145.880/145.840
RS-15 08 Jul 02:00:55 02:10:57 47° 112° (ESE) 02:21:26 29.354- 29.394
KKS-1 08 Jul 02:06:41 02:08:32 13° 60° (ENE) 02:10:35 437.445
SWISSCUBE 08 Jul 02:06:53 02:11:38 71° 74° (ENE) 02:16:27 437.505
SO-50 08 Jul 02:10:57 02:15:34 38° 243° (WSW) 02:20:02 436.795
ITUPSAT 1 08 Jul 02:14:04 02:18:51 75° 73° (ENE) 02:23:41 437.325
Cosmos 2491 08 Jul 02:20:38 02:29:09 54° 74° (ENE) 02:37:39 435.465 / 435.565
PCSat 08 Jul 02:20:47 02:24:32 19° 253° (WSW) 02:28:05 145.827
STARS 08 Jul 02:47:44 02:50:51 20° 64° (ENE) 02:54:04 437.465
Oscar 19 08 Jul 02:55:30 03:00:36 65° 101° (E) 03:05:43 437.125/150
YUBILEINY 08 Jul 02:56:15 03:03:43 35° 85° (E) 03:11:25 435.215
ITAMSAT 1 08 Jul 03:15:56 03:20:24 29° 94° (E) 03:24:55 435.822/435.867
AIST 1 08 Jul 03:16:05 03:20:28 81° 263° (W) 03:24:46
BEESAT 08 Jul 03:29:52 03:33:35 22° 268° (W) 03:37:12 436.000
Gurwin Techsat 1B 08 Jul 03:31:54 03:36:57 43° 98° (E) 03:42:01 435.225
KKS-1 08 Jul 03:40:10 03:44:37 80° 257° (WSW) 03:49:05 437.445
SWISSCUBE 08 Jul 03:47:29 03:50:06 14° 272° (W) 03:52:30 437.505
ITUPSAT 1 08 Jul 03:54:58 03:57:23 13° 273° (W) 03:59:33 437.325
RS-15 08 Jul 04:12:20 04:23:09 60° 316° (NW) 04:34:23 29.354- 29.394
Cosmos 2491 08 Jul 04:17:59 04:25:47 37° 274° (W) 04:33:23 435.465 / 435.565
STARS 08 Jul 04:22:47 04:27:01 46° 261° (W) 04:31:15 437.465
MOZHAYETS 4 08 Jul 04:25:50 04:29:56 34° 69° (ENE) 04:34:08
JAS-2 08 Jul 04:26:47 04:33:16 46° 97° (E) 04:40:27 435.910
HORYU 2 08 Jul 04:31:42 04:35:07 22° 93° (E) 04:38:39 437.375
Oscar 19 08 Jul 04:35:56 04:39:32 19° 299° (WNW) 04:42:59 437.125/150
AO-7 08 Jul 04:39:29 04:46:43 32° 94° (E) 04:54:04 29.400- 29.500
YUBILEINY 08 Jul 04:51:45 05:00:15 56° 286° (WNW) 05:08:47 435.215
ITAMSAT 1 08 Jul 04:55:10 05:00:02 40° 292° (WNW) 05:04:50 435.822/435.867
Gurwin Techsat 1B 08 Jul 05:12:15 05:16:47 28° 295° (WNW) 05:21:13 435.225
Cosmos 2504 08 Jul 05:23:35 05:29:17 30° 85° (E) 05:35:12 435.465 / 435.565
STRAND 1 08 Jul 05:58:18 06:00:37 13° 58° (ENE) 06:03:09 437.568
MOZHAYETS 4 08 Jul 06:03:18 06:07:14 27° 267° (W) 06:11:08
HORYU 2 08 Jul 06:07:45 06:11:57 40° 290° (WNW) 06:16:07 437.375
BEESAT 3 08 Jul 06:11:54 06:14:12 15° 112° (ESE) 06:16:38 437.485
JAS-2 08 Jul 06:12:07 06:18:16 39° 293° (WNW) 06:24:57 435.910
CUTE-I 08 Jul 06:22:28 06:23:50 11° 84° (E) 06:25:33 437.470
RS-15 08 Jul 06:29:05 06:38:34 30° 347° (NNW) 06:48:20 29.354- 29.394
BEESAT 2 08 Jul 06:29:19 06:32:05 18° 113° (ESE) 06:34:59 435.950
AO-7 08 Jul 06:31:49 06:40:05 63° 294° (WNW) 06:48:14 29.400- 29.500
CUBESAT XI-V 08 Jul 06:39:58 06:44:39 70° 74° (ENE) 06:49:23 437.345
PRISM 08 Jul 06:47:03 06:50:31 26° 67° (ENE) 06:54:05 437.425
ISS 08 Jul 06:53:48 06:55:51 16° 135° (SE) 06:58:00 145.825
Cubesat XI-IV 08 Jul 06:55:42 06:59:55 24° 92° (E) 07:04:14 437.490
YUBILEINY 08 Jul 06:56:10 06:59:42 12° 312° (NW) 07:02:41 435.215
VERMONT LUNAR 08 Jul 06:57:03 06:59:15 18° 160° (SSE) 07:01:29 437.305
Cosmos 2504 08 Jul 07:14:30 07:21:11 50° 285° (WNW) 07:27:57 435.465 / 435.565
STRAND 1 08 Jul 07:33:57 07:39:06 85° 78° (ENE) 07:44:19 437.568
GONETS M04 08 Jul 07:37:48 07:41:19 14° 74° (ENE) 07:45:27
M-CUBED/EXP-1 PRIME 08 Jul 07:43:20 07:43:31 10° 55° (NE) 07:43:52 437.505
O/OREOS (USA 219) 08 Jul 07:47:09 07:51:37 88° 106° (ESE) 07:56:07 437.305
BEESAT 3 08 Jul 07:47:41 07:51:44 60° 308° (NW) 07:55:48 437.485
CUTE-I 08 Jul 07:59:29 08:04:53 83° 102° (ESE) 08:10:15 437.470
BEESAT 2 08 Jul 08:05:47 08:09:49 51° 310° (NW) 08:13:53 435.950
DANDE 08 Jul 08:07:18 08:13:35 47° 97° (E) 08:18:25 436.750
AIST 2 08 Jul 08:13:15 08:17:23 52° 120° (ESE) 08:21:33 435.215
PHONESAT 2.4 08 Jul 08:13:16 08:15:29 16° 156° (SSE) 08:17:46 2401.200-2431.200
CUSAT 1 08 Jul 08:17:43 08:23:36 76° 99° (E) 08:27:59 437.405
CUBESAT XI-V 08 Jul 08:20:06 08:22:40 14° 273° (W) 08:25:00 437.345
PRISM 08 Jul 08:22:09 08:25:53 30° 264° (W) 08:29:36 437.425
HO-68 08 Jul 08:25:47 08:27:42 11° 82° (E) 08:30:08 435.675
AO-7 08 Jul 08:26:19 08:31:24 17° 316° (NW) 08:36:10 29.400- 29.500
ISS 08 Jul 08:28:41 08:31:55 77° 331° (NNW) 08:35:11 145.825
VERMONT LUNAR 08 Jul 08:32:50 08:35:41 34° 176° (S) 08:38:34 437.305
Cubesat XI-IV 08 Jul 08:35:08 08:40:21 50° 290° (WNW) 08:45:29 437.490
AUBIESAT-1 08 Jul 08:36:25 08:39:29 32° 64° (ENE) 08:42:45 437.475
RS-15 08 Jul 08:45:22 08:55:22 34° 21° (NNE) 09:05:55 29.354- 29.394
GOMX 1 08 Jul 08:48:20 08:51:03 17° 90° (E) 08:53:51 467.674
DOVE 4 08 Jul 09:12:08 09:15:04 19° 91° (E) 09:18:08 437.250
COMPASS 1 08 Jul 09:12:59 09:14:14 11° 87° (E) 09:15:43 437.405
M-CUBED/EXP-1 PRIME 08 Jul 09:14:29 09:17:49 68° 252° (WSW) 09:21:22 437.505
STRAND 1 08 Jul 09:16:43 09:19:06 13° 274° (W) 09:21:13 437.568
GONETS M04 08 Jul 09:28:01 09:36:41 69° 94° (E) 09:45:22
CINEMA 3 08 Jul 09:28:11 09:30:06 13° 89° (E) 09:32:15 145.822/145.860
BEESAT 3 08 Jul 09:28:52 09:30:34 12° 330° (NNW) 09:32:08 437.485
O/OREOS (USA 219) 08 Jul 09:29:30 09:31:46 13° 314° (NW) 09:33:54 437.305
BRITE-PL 08 Jul 09:33:09 09:37:27 88° 102° (ESE) 09:41:36 437.365/2234.400
CUTE 1.7 + AOD 2 08 Jul 09:34:36 09:38:23 30° 95° (E) 09:42:12 437.475
CANX-2 08 Jul 09:38:29 09:42:29 36° 96° (E) 09:46:29 2200.000
TIGRISAT 08 Jul 09:40:42 09:41:12 10° 60° (ENE) 09:41:55 435.000
CUTE-I 08 Jul 09:41:03 09:44:21 16° 301° (WNW) 09:47:27 437.470
BEESAT 2 08 Jul 09:47:40 09:48:52 11° 331° (NNW) 09:49:58 435.950
CUBEBUG 2 08 Jul 09:49:40 09:50:28 11° 87° (E) 09:51:34 437.445
PHONESAT 2.4 08 Jul 09:49:50 09:52:59 35° 172° (S) 09:56:10 2401.200-2431.200
DANDE 08 Jul 09:51:30 09:56:47 26° 288° (WNW) 10:00:55 436.750
AIST 2 08 Jul 09:52:46 09:56:14 23° 320° (NW) 09:59:39 435.215
CUSAT 1 08 Jul 10:03:47 10:06:21 13° 292° (WNW) 10:08:27 437.405
DELFI C3 08 Jul 10:05:32 10:06:27 11° 87° (E) 10:07:37 145.870
ISS 08 Jul 10:05:49 10:08:40 27° 351° (N) 10:11:30 145.825
VERMONT LUNAR 08 Jul 10:09:30 10:12:12 27° 193° (SSW) 10:14:55 437.305
HO-68 08 Jul 10:09:51 10:16:59 67° 103° (ESE) 10:24:07 435.675
AUBIESAT-1 08 Jul 10:12:11 10:14:28 16° 264° (W) 10:16:42 437.475
SEEDS 08 Jul 10:15:51 10:20:07 68° 100° (E) 10:24:23 437.485
AAUSAT CUBESAT 2 08 Jul 10:16:27 10:20:32 46° 98° (E) 10:24:37 437.432
QB50P1 08 Jul 10:17:03 10:18:08 11° 61° (ENE) 10:19:25 145.935-145.965
UNISAT 6 08 Jul 10:18:55 10:22:24 26° 67° (ENE) 10:25:58 437.425
GOMX 1 08 Jul 10:25:32 10:29:31 42° 289° (WNW) 10:33:26 467.674
NANOSAT C BR1 08 Jul 10:28:22 10:30:33 14° 62° (ENE) 10:32:53 145.865
UWE-3 08 Jul 10:29:46 10:33:09 23° 93° (E) 10:36:41 435.000/436.395/437.385
DUCHIFAT 1 08 Jul 10:33:29 10:35:57 16° 63° (ENE) 10:38:32 145.980
BUGSAT 1 08 Jul 10:33:34 10:34:15 10° 60° (ENE) 10:35:08 437.445
Cosmos 2499 08 Jul 10:39:01 10:45:23 39° 88° (E) 10:52:01 435.465 / 435.565
POLYITAN 1 08 Jul 10:43:22 10:46:26 20° 66° (ENE) 10:49:37 437.675
COMPASS 1 08 Jul 10:46:13 10:50:27 71° 285° (WNW) 10:54:40 437.405
DOVE 4 08 Jul 10:49:12 10:53:04 38° 289° (WNW) 10:56:57 437.250
DX 1 08 Jul 10:52:48 10:53:33 11° 87° (E) 10:54:34 434.975-435.025
HUMSAT D 08 Jul 10:52:51 10:54:57 14° 89° (E) 10:57:14 437.325/437.525
RS-15 08 Jul 10:58:29 11:10:11 74° 50° (NE) 11:22:21 29.354- 29.394
ANTELSAT 08 Jul 11:02:39 11:06:54 73° 74° (ENE) 11:11:10 437.575/2403.000
CINEMA 3 08 Jul 11:03:38 11:07:46 59° 286° (WNW) 11:11:58 145.822/145.860
UKube-1 08 Jul 11:06:00 11:08:08 14° 89° (E) 11:10:29 .
Oscar 11 08 Jul 11:06:34 11:10:56 74° 102° (ESE) 11:15:17 145.826/435.025
ZACube-1 08 Jul 11:07:17 11:11:22 45° 98° (E) 11:15:33 437.345
CUTE 1.7 + AOD 2 08 Jul 11:10:34 11:14:14 27° 292° (WNW) 11:17:51 437.475
POPSAT HIP 1 08 Jul 11:11:01 11:14:55 37° 70° (ENE) 11:18:50 437.405
QB50P2 08 Jul 11:11:23 11:15:19 39° 70° (ENE) 11:19:16 145.880/145.840
TIGRISAT 08 Jul 11:13:04 11:17:20 90° 82° (E) 11:21:37 435.000
CANX-2 08 Jul 11:14:48 11:18:14 23° 293° (WNW) 11:21:34 2200.000
50 SAT 08 Jul 11:18:55 11:20:31 12° 89° (E) 11:22:17 437.505
CUBEBUG 2 08 Jul 11:23:31 11:27:45 75° 285° (WNW) 11:32:05 437.445
GONETS M04 08 Jul 11:26:52 11:34:23 29° 297° (WNW) 11:41:40
PHONESAT 2.4 08 Jul 11:27:30 11:30:38 34° 189° (S) 11:33:48 2401.200-2431.200
DELFI C3 08 Jul 11:38:00 11:42:05 69° 285° (WNW) 11:46:08 145.870
FUNcube-1 08 Jul 11:41:26 11:45:42 80° 285° (WNW) 11:50:01 145.935
ISS 08 Jul 11:42:48 11:45:40 28° 11° (N) 11:48:33 145.825
AISAT 08 Jul 11:45:46 11:49:16 23° 93° (E) 11:52:50 437.250
VERMONT LUNAR 08 Jul 11:48:07 11:48:31 10° 207° (SSW) 11:48:50 437.305
QB50P1 08 Jul 11:49:10 11:53:25 85° 256° (WSW) 11:57:41 145.935-145.965
CUBEBUG 1 08 Jul 11:50:54 11:53:14 15° 89° (E) 11:55:44 437.445
AAUSAT CUBESAT 2 08 Jul 11:52:54 11:55:50 18° 295° (WNW) 11:58:39 437.432
SEEDS 08 Jul 11:53:15 11:55:27 14° 297° (WNW) 11:57:27 437.485
UNISAT 6 08 Jul 11:55:17 11:59:07 31° 264° (W) 12:02:55 437.425
HO-68 08 Jul 11:58:20 12:04:16 28° 302° (WNW) 12:10:03 435.675
NANOSAT C BR1 08 Jul 12:01:44 12:05:56 63° 259° (WSW) 12:10:08 145.865
BUGSAT 1 08 Jul 12:04:54 12:09:07 88° 256° (WSW) 12:13:19 437.445
UWE-3 08 Jul 12:05:55 12:09:47 34° 290° (WNW) 12:13:41 435.000/436.395/437.385
DUCHIFAT 1 08 Jul 12:07:12 12:11:21 56° 259° (W) 12:15:31 145.980
POLYITAN 1 08 Jul 12:18:06 12:22:07 40° 262° (W) 12:26:07 437.675
DX 1 08 Jul 12:26:06 12:30:28 79° 285° (WNW) 12:34:48 434.975-435.025
HUMSAT D 08 Jul 12:26:59 12:31:05 57° 287° (WNW) 12:35:13 437.325/437.525
Cosmos 2499 08 Jul 12:32:00 12:38:34 39° 290° (WNW) 12:45:16 435.465 / 435.565
ESTCUBE 1 08 Jul 12:32:49 12:37:13 47° 99° (E) 12:41:35 437.505/2401.250
VELOX 1 08 Jul 12:33:01 12:37:27 70° 102° (ESE) 12:41:49 145.980
SPROUT 08 Jul 12:36:36 12:38:33 13° 88° (E) 12:40:43 437.525
Oscar 19 08 Jul 12:37:32 12:40:40 17° 60° (ENE) 12:43:59 437.125/150
UKube-1 08 Jul 12:40:27 12:44:44 60° 287° (WNW) 12:48:59 .
ANTELSAT 08 Jul 12:43:02 12:44:18 11° 273° (W) 12:45:20 437.575/2403.000
ZACube-1 08 Jul 12:44:25 12:47:28 19° 295° (WNW) 12:50:27 437.345
Oscar 11 08 Jul 12:44:31 12:46:36 13° 298° (WNW) 12:48:30 145.826/435.025
POPSAT HIP 1 08 Jul 12:47:38 12:50:56 21° 268° (W) 12:54:08 437.405
QB50P2 08 Jul 12:48:09 12:51:23 20° 268° (W) 12:54:30 145.880/145.840
50 SAT 08 Jul 12:51:40 12:55:31 56° 287° (WNW) 12:59:23 437.505
TISAT 1 08 Jul 13:00:43 13:03:07 15° 90° (E) 13:05:40 437.305
YUBILEINY 08 Jul 13:03:28 13:09:18 20° 56° (ENE) 13:15:31 435.215
PHONESAT 2.4 08 Jul 13:06:00 13:08:07 15° 205° (SSW) 13:10:11 2401.200-2431.200
RS-15 08 Jul 13:11:37 13:22:00 37° 252° (WSW) 13:32:23 29.354- 29.394
Gurwin Techsat 1B 08 Jul 13:18:42 13:21:00 13° 57° (ENE) 13:23:30 435.225
ISS 08 Jul 13:19:06 13:22:21 88° 220° (SW) 13:25:36 145.825
AISAT 08 Jul 13:21:54 13:25:58 36° 291° (WNW) 13:29:58 437.250
CUBEBUG 1 08 Jul 13:25:44 13:30:02 57° 287° (WNW) 13:34:17 437.445
Cosmos 2491 08 Jul 13:36:18 13:37:19 10° 72° (ENE) 13:39:04 435.465 / 435.565
AO-7 08 Jul 13:53:18 13:57:13 15° 41° (NE) 14:01:31 29.400- 29.500
SWISSCUBE 08 Jul 14:06:32 14:09:19 16° 89° (E) 14:12:19 437.505
ESTCUBE 1 08 Jul 14:10:24 14:13:46 20° 296° (WNW) 14:17:02 437.505/2401.250
SPROUT 08 Jul 14:10:53 14:15:07 61° 287° (WNW) 14:19:20 437.525
VELOX 1 08 Jul 14:11:07 14:13:30 14° 299° (WNW) 14:15:43 145.980
ITUPSAT 1 08 Jul 14:13:51 14:16:51 17° 89° (E) 14:20:02 437.325
Oscar 19 08 Jul 14:14:23 14:19:31 73° 258° (WSW) 14:24:40 437.125/150
BEESAT 3 08 Jul 14:27:04 14:30:15 21° 40° (NE) 14:33:25 437.485
TISAT 1 08 Jul 14:35:10 14:39:15 51° 288° (WNW) 14:43:18 437.305
ITAMSAT 1 08 Jul 14:35:37 14:40:41 53° 71° (ENE) 14:45:48 435.822/435.867
JAS-2 08 Jul 14:43:45 14:47:29 20° 59° (ENE) 14:51:34 435.910
BEESAT 2 08 Jul 14:45:27 14:48:51 25° 42° (NE) 14:52:15 435.950
Gurwin Techsat 1B 08 Jul 14:54:54 15:00:12 81° 76° (ENE) 15:05:34 435.225
AIST 2 08 Jul 14:55:57 14:57:52 13° 31° (NNE) 14:59:53 435.215
ISS 08 Jul 14:56:41 14:58:21 13° 226° (SW) 14:59:54 145.825
YUBILEINY 08 Jul 14:58:59 15:07:48 83° 80° (E) 15:16:38 435.215
Cosmos 2504 08 Jul 15:07:47 15:09:50 11° 53° (NE) 15:12:26 435.465 / 435.565
PCSat 08 Jul 15:19:54 15:24:56 42° 114° (ESE) 15:30:03 145.827
Cosmos 2491 08 Jul 15:23:54 15:32:24 58° 91° (E) 15:40:59 435.465 / 435.565
BEESAT 08 Jul 15:26:32 15:31:22 84° 104° (ESE) 15:36:11 436.000
KKS-1 08 Jul 15:30:19 15:33:09 17° 90° (E) 15:36:08 437.445
HORYU 2 08 Jul 15:31:55 15:35:34 26° 66° (ENE) 15:39:17 437.375
AO-7 08 Jul 15:40:19 15:48:18 53° 63° (ENE) 15:56:23 29.400- 29.500
SWISSCUBE 08 Jul 15:42:55 15:47:42 63° 288° (WNW) 15:52:26 437.505
AIST 1 08 Jul 15:47:13 15:51:30 53° 95° (E) 15:55:50
ITUPSAT 1 08 Jul 15:50:27 15:55:13 60° 288° (WNW) 15:59:56 437.325
BEESAT 3 08 Jul 16:04:31 16:08:29 51° 240° (WSW) 16:12:21 437.485
STARS 08 Jul 16:10:37 16:14:19 27° 95° (E) 16:18:03 437.465
O/OREOS (USA 219) 08 Jul 16:16:12 16:20:06 28° 55° (NE) 16:24:05 437.305
ITAMSAT 1 08 Jul 16:16:32 16:20:33 21° 269° (W) 16:24:28 435.822/435.867
BEESAT 2 08 Jul 16:23:11 16:27:05 42° 241° (WSW) 16:30:54 435.950
SO-50 08 Jul 16:26:36 16:31:07 46° 119° (ESE) 16:35:48 436.795
JAS-2 08 Jul 16:26:59 16:32:07 60° 260° (W) 16:37:40 435.910
AIST 2 08 Jul 16:33:06 16:37:19 64° 52° (NE) 16:41:26 435.215
Gurwin Techsat 1B 08 Jul 16:38:03 16:40:58 14° 274° (W) 16:43:35 435.225
Cosmos 2504 08 Jul 16:56:34 17:04:00 57° 76° (ENE) 17:12:00 435.465 / 435.565
YUBILEINY 08 Jul 16:57:16 17:03:43 23° 280° (W) 17:09:48 435.215
PCSat 08 Jul 17:03:32 17:08:28 35° 313° (NW) 17:13:25 145.827
KKS-1 08 Jul 17:05:50 17:10:08 51° 289° (WNW) 17:14:25 437.445
BEESAT 08 Jul 17:06:09 17:08:36 14° 301° (WNW) 17:10:51 436.000
HORYU 2 08 Jul 17:08:05 17:12:06 33° 264° (W) 17:16:07 437.375
Cosmos 2491 08 Jul 17:21:48 17:29:47 35° 293° (WNW) 17:37:38 435.465 / 435.565
AIST 1 08 Jul 17:26:45 17:29:34 16° 294° (WNW) 17:32:14
AO-7 08 Jul 17:33:39 17:41:23 39° 263° (W) 17:49:04 29.400- 29.500
CUTE-I 08 Jul 17:44:51 17:49:04 25° 63° (ENE) 17:53:26 437.470
STARS 08 Jul 17:46:53 17:50:47 31° 292° (WNW) 17:54:38 437.465
MOZHAYETS 4 08 Jul 17:55:24 18:00:03 62° 100° (E) 18:04:40
O/OREOS (USA 219) 08 Jul 17:55:28 17:59:36 34° 254° (WSW) 18:03:41 437.305
SO-50 08 Jul 18:07:34 18:11:51 31° 319° (NW) 18:16:12 436.795
AIST 2 08 Jul 18:13:02 18:15:26 15° 249° (WSW) 18:17:39 435.215
Cubesat XI-IV 08 Jul 18:19:23 18:24:29 47° 69° (ENE) 18:29:40 437.490
CUBESAT XI-V 08 Jul 18:36:05 18:38:43 15° 88° (E) 18:41:32 437.345
DANDE 08 Jul 18:47:26 18:49:21 18° 69° (ENE) 18:51:15 436.750
Cosmos 2504 08 Jul 18:49:21 18:55:54 31° 274° (W) 19:02:39 435.465 / 435.565
PCSat 08 Jul 18:52:57 18:53:40 10° 337° (NNW) 18:54:13 145.827
CUSAT 1 08 Jul 18:53:11 18:55:40 38° 76° (ENE) 18:58:12 437.405
HO-68 08 Jul 18:57:24 19:00:39 14° 48° (NE) 19:04:14 435.675
BRITE-PL 08 Jul 19:08:54 19:12:12 18° 64° (ENE) 19:15:31 437.365/2234.400
CUTE-I 08 Jul 19:23:39 19:28:52 51° 260° (W) 19:34:08 437.470
MOZHAYETS 4 08 Jul 19:33:47 19:36:50 17° 297° (WNW) 19:39:43
GONETS M04 08 Jul 19:35:59 19:43:52 38° 68° (ENE) 19:51:51
STRAND 1 08 Jul 19:43:06 19:47:15 25° 92° (E) 19:51:28 437.568
SO-50 08 Jul 19:53:25 19:54:01 10° 342° (NNW) 19:54:31 436.795
GOMX 1 08 Jul 19:57:45 20:01:54 28° 68° (ENE) 20:05:53 467.674
Cubesat XI-IV 08 Jul 20:00:24 20:04:51 25° 267° (W) 20:09:14 437.490
PRISM 08 Jul 20:02:06 20:05:50 31° 96° (E) 20:09:34 437.425
COMPASS 1 08 Jul 20:06:56 20:08:04 11° 61° (ENE) 20:09:25 437.405
CUBESAT XI-V 08 Jul 20:12:01 20:16:40 62° 287° (WNW) 20:21:14 437.345
DOVE 4 08 Jul 20:19:23 20:23:17 28° 69° (ENE) 20:27:06 437.250
Cosmos 2499 08 Jul 20:26:42 20:31:37 18° 58° (ENE) 20:37:09 435.465 / 435.565
CUTE 1.7 + AOD 2 08 Jul 20:29:32 20:33:06 28° 68° (ENE) 20:36:46 437.475
DANDE 08 Jul 20:31:47 20:32:18 10° 270° (W) 20:32:41 436.750
CINEMA 3 08 Jul 20:31:58 20:34:43 17° 65° (ENE) 20:37:32 145.822/145.860
CANX-2 08 Jul 20:33:24 20:37:11 33° 70° (ENE) 20:41:02 2200.000
HO-68 08 Jul 20:40:08 20:47:07 61° 68° (ENE) 20:54:10 435.675
BRITE-PL 08 Jul 20:45:02 20:50:22 68° 259° (W) 20:55:18 437.365/2234.400
CUBEBUG 2 08 Jul 20:50:01 20:51:42 12° 62° (ENE) 20:53:33 437.445
FUNcube-1 08 Jul 21:06:24 21:07:26 11° 61° (ENE) 21:08:42 145.935
AAUSAT CUBESAT 2 08 Jul 21:09:02 21:12:54 40° 71° (ENE) 21:16:50 437.432
SEEDS 08 Jul 21:09:36 21:13:43 60° 74° (ENE) 21:17:54 437.485
STRAND 1 08 Jul 21:21:47 21:26:42 45° 291° (WNW) 21:31:32 437.568
UWE-3 08 Jul 21:29:13 21:32:34 24° 68° (ENE) 21:35:59 435.000/436.395/437.385
GONETS M04 08 Jul 21:32:42 21:41:05 53° 270° (W) 21:49:21
GOMX 1 08 Jul 21:35:22 21:39:58 36° 264° (W) 21:44:16 467.674
PRISM 08 Jul 21:37:39 21:41:11 26° 293° (WNW) 21:44:37 437.425
COMPASS 1 08 Jul 21:39:00 21:43:10 81° 257° (WSW) 21:47:23 437.405
HUMSAT D 08 Jul 21:47:17 21:49:13 13° 63° (ENE) 21:51:18 437.325/437.525
AUBIESAT-1 08 Jul 21:48:30 21:52:01 24° 99° (E) 21:55:46 437.475
DX 1 08 Jul 21:49:48 21:51:58 14° 61° (ENE) 21:54:18 434.975-435.025
DOVE 4 08 Jul 21:56:43 22:01:00 33° 264° (W) 22:05:03 437.250
VELOX 1 08 Jul 22:00:42 22:00:51 10° 58° (ENE) 22:01:13 145.980
UKube-1 08 Jul 22:02:44 22:05:28 17° 63° (ENE) 22:08:19 .
Oscar 11 08 Jul 22:03:02 22:07:19 73° 75° (ENE) 22:11:38 145.826/435.025
ZACube-1 08 Jul 22:05:17 22:09:15 44° 72° (ENE) 22:13:13 437.345
CUTE 1.7 + AOD 2 08 Jul 22:05:19 22:08:59 28° 266° (W) 22:12:39 437.475
CINEMA 3 08 Jul 22:07:20 22:11:38 51° 261° (W) 22:15:47 145.822/145.860
CANX-2 08 Jul 22:09:46 22:13:12 23° 268° (W) 22:16:34 2200.000
Cosmos 2499 08 Jul 22:18:14 22:26:12 80° 80° (E) 22:34:47 435.465 / 435.565
PCSat 08 Jul 22:23:24 22:26:04 14° 30° (NNE) 22:28:52 145.827
CUBEBUG 2 08 Jul 22:23:42 22:27:56 71° 258° (WSW) 22:32:06 437.445
DELFI C3 08 Jul 22:26:45 22:30:46 88° 253° (WSW) 22:34:50 145.870
M-CUBED/EXP-1 PRIME 08 Jul 22:26:51 22:31:10 66° 107° (ESE) 22:35:46 437.505
HO-68 08 Jul 22:29:17 22:35:21 28° 268° (W) 22:41:18 435.675
FUNcube-1 08 Jul 22:39:03 22:43:13 80° 257° (WSW) 22:47:23 145.935
AISAT 08 Jul 22:45:21 22:49:08 28° 67° (ENE) 22:52:58 437.250
AAUSAT CUBESAT 2 08 Jul 22:45:42 22:48:43 19° 269° (W) 22:51:39 437.432
SEEDS 08 Jul 22:47:54 22:49:59 13° 272° (W) 22:51:52 437.485
CUBEBUG 1 08 Jul 22:49:00 22:51:51 17° 64° (ENE) 22:54:49 437.445
ANTELSAT 08 Jul 22:53:55 22:55:59 13° 88° (E) 22:58:17 437.575/2403.000
TIGRISAT 08 Jul 23:03:35 23:06:16 16° 90° (E) 23:09:10 435.000
UWE-3 08 Jul 23:05:15 23:09:01 31° 264° (W) 23:12:44 435.000/436.395/437.385
SO-50 08 Jul 23:16:23 23:19:37 17° 31° (NNE) 23:22:55 436.795
HUMSAT D 08 Jul 23:20:27 23:24:30 62° 259° (W) 23:28:34 437.325/437.525
AUBIESAT-1 08 Jul 23:22:47 23:26:50 40° 294° (WNW) 23:31:06 437.475
DX 1 08 Jul 23:23:20 23:27:43 71° 258° (WSW) 23:32:06 434.975-435.025
VELOX 1 08 Jul 23:32:14 23:36:42 79° 73° (ENE) 23:41:11 145.980
SPROUT 08 Jul 23:32:59 23:35:17 15° 63° (ENE) 23:37:45 437.525
QB50P1 08 Jul 23:33:52 23:35:52 13° 88° (E) 23:38:04 145.935-145.965
ESTCUBE 1 08 Jul 23:34:08 23:38:34 55° 72° (ENE) 23:43:03 437.505/2401.250
UKube-1 08 Jul 23:36:57 23:41:13 55° 259° (W) 23:45:31 .
50 SAT 08 Jul 23:37:17 23:41:06 78° 256° (WSW) 23:44:58 437.505
Oscar 11 08 Jul 23:42:36 23:44:07 11° 274° (W) 23:45:21 145.826/435.025
ZACube-1 08 Jul 23:43:05 23:45:53 17° 270° (W) 23:48:34 437.345
UNISAT 6 08 Jul 23:44:18 23:48:32 43° 98° (E) 23:52:51 437.425
NANOSAT C BR1 08 Jul 23:45:29 23:48:18 18° 91° (E) 23:51:14 145.865
BUGSAT 1 08 Jul 23:47:32 23:48:35 11° 87° (E) 23:49:51 437.445
DUCHIFAT 1 08 Jul 23:50:33 23:53:34 19° 92° (E) 23:56:41 145.980
TISAT 1 08 Jul 23:55:02 23:57:37 16° 64° (ENE) 00:00:20 437.305
POLYITAN 1 09 Jul 00:01:32 00:05:07 27° 94° (E) 00:08:44 437.675
M-CUBED/EXP-1 PRIME 09 Jul 00:02:51 00:05:38 17° 301° (WNW) 00:08:23 437.505
PCSat 09 Jul 00:05:29 00:10:49 53° 52° (NE) 00:16:07 145.827
Cosmos 2499 09 Jul 00:12:41 00:18:42 23° 278° (W) 00:24:39 435.465 / 435.565
AISAT 09 Jul 00:21:38 00:25:39 31° 264° (W) 00:29:38 437.250
CUBEBUG 1 09 Jul 00:23:28 00:27:50 54° 260° (W) 00:32:12 437.445
ANTELSAT 09 Jul 00:28:51 00:33:16 66° 285° (WNW) 00:37:45 437.575/2403.000
POPSAT HIP 1 09 Jul 00:29:32 00:33:39 52° 100° (E) 00:37:45 437.405
QB50P2 09 Jul 00:30:04 00:34:14 55° 100° (E) 00:38:23 145.880/145.840
TIGRISAT 09 Jul 00:39:05 00:43:23 54° 287° (WNW) 00:47:46 435.000
